Regional Weather Roundup
Issued by NWS

Home | Current Version | Previous Version | Graphics & Text | Print | Product List | Glossary On
Versions: 1 2 3 4 5 6 7 8 9 10 11 12 13 14 15 16 17 18 19 20 21 22 23 24 25 26 27 28 29 30 31 32 33 34 35 36 37 38 39 40 41 42 43 44 45 46 47 48 49 50
000
ASUS43 KMPX 190201
RWRMN
WEATHER ROUNDUP FOR MINNESOTA
NATIONAL WEATHER SERVICE TWIN CITIES/CHANHASSEN MN
800 PM CST SAT NOV 18 2017


NOTE: "FAIR" INDICATES FEW OR NO CLOUDS BELOW 12,000 FEET WITH NO
SIGNIFICANT WEATHER AND/OR OBSTRUCTIONS TO VISIBILITY. N/A MEANS
CURRENT SKY AND/OR WEATHER CONDITIONS ARE NOT AVAILABLE.

MNZ060>063-068>070-190300-
   Twin Cities Metro

CITY           SKY/WX    TMP DP  RH WIND       PRES   REMARKS
TWIN CITIES    PTCLDY    23  12  62 NW20G29   30.01R WCI   8
ST PAUL        PTCLDY    24  12  60 NW23      30.01R WCI   9
CRYSTAL        CLEAR     22   9  57 NW14G24   30.00R WCI   9
BLAINE         CLEAR     23  12  63 NW18G25   29.99R WCI   9
LAKEVILLE      PTCLDY    21  16  79 NW12G22   29.99R WCI   9
EDEN PRAIRIE   CLEAR     24  12  60 NW10      30.00R WCI  14
SOUTH ST PAUL  PTCLDY    25  13  61 NW12      30.00R WCI  14
LAKE ELMO      CLOUDY    27  16  63 NW10      29.99R WCI  17
$$
MNZ001>005-007-008-013>017-022>024-027-028-190300-
   Northwest Minnesota

CITY           SKY/WX    TMP DP  RH WIND       PRES   REMARKS
BEMIDJI        CLOUDY    13   7  77 W9        29.99R WCI   0
HALLOCK        CLOUDY     9   3  78 W5        30.01F WCI   0
ROSEAU         CLOUDY    12   7  79 W7        29.97F WCI   2
WARROAD        CLEAR     10   7  85 W6        29.95F WCI   1
CROOKSTON      PTCLDY    16  10  79 NW9       30.05S WCI   4
FOSSTON        CLOUDY    12   9  85 W13       30.02S WCI  -3
DETROIT LAKES  CLEAR     18  10  73 NW10      30.04S WCI   6
MOORHEAD       CLEAR     18   9  68 W5        30.09R WCI  11
PARK RAPIDS    CLOUDY    14   7  73 W12       29.99R WCI   0
MAHNOMEN       FAIR      15   8  74 W14       30.03S WCI   1
$$
MNZ006-009>011-018-025>026-190300-
   North Central Minnesota

CITY           SKY/WX    TMP DP  RH WIND       PRES   REMARKS
BAUDETTE       CLOUDY    14   7  73 W12       29.95R WCI   0
FLAG ISLAND    CLOUDY    12   7  79 W7        29.93F WCI   2
INTL FALLS     CLOUDY    16   7  67 W9        29.93R HAZE    WCI   4
WASKISH        CLOUDY    14   9  79 W15G21    29.98R WCI  -1
BIG FORK       FLURRIES  16   9  73 W5        29.94S WCI   9
LONGVILLE      CLEAR     16   9  73 W13       29.97S WCI   2
GRAND RAPIDS   FLURRIES  16  10  77 NW16G24   29.96S WCI   1
CRANE LAKE     CLOUDY    14   7  73 W5        29.92F WCI   6
ORR            CLOUDY    14   7  73 NW15      29.88S WCI  -1
COOK           FLURRIES  16  10  79 W13       29.91S WCI   2
WALKER         FAIR      13   7  79 W9G16     29.98S WCI   0
$$
MNZ012-019>021-037-190300-
   Northeast Minnesota

CITY           SKY/WX    TMP DP  RH WIND       PRES   REMARKS
DULUTH         PTCLDY    17   9  70 NW20G25   29.88R WCI   1
ELY            CLOUDY    16   7  67 NW12G20   29.88R WCI   3
HIBBING        CLOUDY    15   8  73 NW15      29.91S WCI   0
EVELETH        FLURRIES  14   7  73 NW10G16   29.92R WCI   1
DULUTH HARBOR  CLOUDY    25  14  63 NW14      29.95R WCI  13
TWO HARBORS    CLOUDY    23  14  68 W7        29.87S WCI  15
SILVER BAY     FLURRIES  19  12  73 NW3       29.86R
GRAND MARAIS     N/A     25  17  72 W3        29.85R
G MARAIS ARPRT FLURRIES  18  10  73 NW6       29.76S WCI   9
$$
MNZ029>031-032-039>041-046>048-054>057-064-190300-
   West Central Minnesota

CITY           SKY/WX    TMP DP  RH WIND       PRES   REMARKS
FERGUS FALLS   CLEAR     16   9  73 NW9       30.10S WCI   4
WHEATON        CLEAR     18   9  68 NW8       30.11F WCI   7
MORRIS         CLEAR     19  10  68 NW10      30.07S WCI   8
ALEXANDRIA     CLEAR     19   9  65 NW14      30.04R WCI   6
ELBOW LAKE     FAIR      17  10  75 NW12      30.07S HAZE    WCI   4
WADENA         CLEAR     16   9  73 NW10      30.01R WCI   3
GLENWOOD       CLEAR     19  10  68 NW17G25   30.04R WCI   4
APPLETON       CLEAR     21  10  63 NW13G18   30.09R WCI   9
BENSON         CLEAR     19   9  63 N16G22    30.08S WCI   5
ORTONVILLE     CLEAR     21  10  63 MISG      30.09S
MADISON        CLEAR     21  14  73 NW7       30.10R WCI  13
WILLMAR        FAIR      21  14  73 NW13      30.06S WCI   9
$$
MNZ033>034-036-042>043-049>051-058-059-190300-
   Central Minnesota

CITY           SKY/WX    TMP DP  RH WIND       PRES   REMARKS
ST CLOUD       CLEAR     19  12  74 NW9       30.01S WCI   8
SAUK CENTRE    FAIR      19  10  68 NW13G20   30.03R WCI   6
PAYNESVILLE    CLEAR     21  14  75 NW12      30.04R WCI   9
AITKIN         MOCLDY    16   9  73 W8        29.96S WCI   5
PINE RIVER     CLEAR     14   9  79 W5        30.02S WCI   6
BRAINERD       CLEAR     18   9  68 NW15G21   29.99S WCI   4
STAPLES        CLEAR     14   9  79 NW13G18   30.01R WCI   0
LONG PRAIRIE   FAIR      18  10  73 W12       30.02R WCI   5
LITTLE FALLS   CLEAR     19   7  58 NW10      30.02R WCI   8
LITCHFIELD     CLEAR     23  14  68 NW13G22   30.03R WCI  11
BUFFALO        CLEAR     21  12  68 NW10      30.03R WCI  10
MAPLE LAKE     CLEAR     22  15  74 NW10      30.03R WCI  11
HUTCHINSON     CLOUDY    23  15  69 NW9G18    30.04R WCI  13
$$
MNZ037-044-045-052-053-190300-
   East Central Minnesota

CITY           SKY/WX    TMP DP  RH WIND       PRES   REMARKS
PRINCETON      CLEAR     19  12  73 W10       30.00S WCI   8
MORA           CLOUDY    21  12  68 NW12      29.99S WCI   9
CAMBRIDGE      CLEAR     21  12  68 W13G20    30.00R WCI   9
RUSH CITY      MOCLDY    22  14  71 W10G16    29.98R WCI  11
MOOSE LAKE     CLEAR     19  12  73 NW7       29.93S WCI  10
HINCKLEY       FAIR      23  14  68 NW12      29.96R WCI  12
CLOQUET        PTCLDY    18   9  68 NW16G23   29.91R WCI   3
MCGREGOR       MOCLDY    19  12  73 NW8       29.95S WCI   9
$$
MNZ071>073-080-081-089-090-097-098-190300-
   Southwest Minnesota

CITY           SKY/WX    TMP DP  RH WIND       PRES   REMARKS
MONTEVIDEO     CLEAR     19  10  68 N7        30.09R WCI  10
GRANITE FALLS  CLEAR     24  14  66 NW13      30.10R WCI  12
CANBY          PTCLDY    22  14  71 NW8       30.11R WCI  12
MARSHALL       CLEAR     21  13  71 NW10      30.10R WCI  10
REDWOOD FALLS  CLEAR     24  10  55 NW14G21   30.08R WCI  12
OLIVIA         CLEAR     23  14  68 NW12G20   30.06R WCI  12
PIPESTONE      CLEAR     25  14  63 NW14      30.08R WCI  13
WINDOM           N/A     25   9  50 NW14      30.06R WCI  13
WORTHINGTON    CLEAR     23  15  71 NW12      30.07R WCI  12
JACKSON        CLEAR     27  14  59 NW17      30.06S WCI  14
SLAYTON        CLEAR     25  14  65 NW15      30.06S WCI  12
$$
MNZ065>067-074>077-082>085-091>093-190300-
   South Central Minnesota

CITY           SKY/WX    TMP DP  RH WIND       PRES   REMARKS
NEW ULM        CLEAR     23  12  63 NW16G23   30.05S WCI  10
ST JAMES       CLEAR     25  14  63 NW17      30.07S WCI  11
FAIRMONT       CLEAR     25  15  66 NW16      30.06R WCI  12
GLENCOE        CLEAR     24  16  69 W16G23    30.03R WCI  11
FARIBAULT      CLEAR     25  16  68 W14G24    30.01R WCI  13
OWATONNA       PTCLDY    25  16  68 NW14G26   30.00R WCI  13
WASECA         CLEAR     23  16  74 NW17G24   30.03R WCI   9
ALBERT LEA     CLEAR     25  14  63 NW15G25   30.00R WCI  12
$$
MNZ078>079-086>088-094>096-190300-
   Southeast Minnesota

CITY           SKY/WX    TMP DP  RH WIND       PRES   REMARKS
ROCHESTER      PTCLDY    26  19  74 NW24G30   29.94R WCI  11
RED WING       MOCLDY    28  16  59 NW9       29.96R WCI  20
STANTON        CLEAR     27  18  70 NW16      29.98R WCI  14
DODGE CENTER   MOCLDY    27  18  69 NW18G24   29.96R WCI  13
WINONA         CLOUDY    32  21  64 NW15G22   29.93R WCI  22
AUSTIN         CLEAR     25  16  68 NW21G28   29.98R WCI  10
PRESTON        CLEAR     26  19  76 NW20G28   29.93R WCI  12
$$
ABBREVIATIONS USED IN REMARKS
   TC - TEMPERATURES IN CELSIUS
  WCI - WIND CHILL INDEX
   HX - HEAT INDEX
  VSB - VISIBILITY
$$




USA.gov is the U.S. government's official web portal to all federal, state and local government web resources and services.